Observations for Trim Market St
| Time | AQI | Temp °C | Hum % | Pres Pa | CO μg/m³ | H₂S μg/m³ | NO μg/m³ | NO₂ μg/m³ | O₃ μg/m³ | SO₂ μg/m³ | PM1 μg/m³ | PM2.5 μg/m³ | PM10 μg/m³ |
|---|---|---|---|---|---|---|---|---|---|---|---|---|---|
| Thursday 27 August 2026 | |||||||||||||
| 18:20 | 2 | 19.7 | 80 | 2,147,483,647 | 0.15 | 0 | 2.02 | 12.76 | 56.92 | 0 | 12.11 | 14.39 | 20.03 |
| 18:19 | 2 | 19.7 | 80 | 2,147,483,647 | 0.17 | 0 | 2 | 16.71 | 49 | 0 | 14.25 | 16.75 | 24.57 |
| 18:18 | 2 | 19.7 | 80 | 2,147,483,647 | 0.19 | 0 | 2.01 | 22.03 | 42.9 | 0 | 15.68 | 16.75 | 25.14 |
| 18:17 | 2 | 19.7 | 80 | 2,147,483,647 | 0.16 | 0 | 2.05 | 18.5 | 48.27 | 0 | 12.83 | 14.39 | 21.18 |
| 18:16 | 2 | 19.7 | 80 | 2,147,483,647 | 0.15 | 0 | 2 | 7.04 | 52.73 | 0 | 13.54 | 15.81 | 23.45 |
| 18:15 | 2 | 19.7 | 80 | 2,147,483,647 | 0.17 | 0 | 1.98 | 11.98 | 53.52 | 0 | 13.54 | 13.93 | 18.91 |
| 18:14 | 2 | 19.7 | 80 | 2,147,483,647 | 0.18 | 0 | 1.98 | 18.52 | 49.81 | 0 | 13.54 | 14.4 | 21.76 |
| 18:12 | 2 | 19.7 | 80 | 2,147,483,647 | 0.22 | 0 | 1.98 | 21.55 | 54.98 | 0 | 14.96 | 16.76 | 24.61 |
| 18:07 | 2 | 19.7 | 79 | 2,147,483,647 | 0.12 | 0 | 1.96 | 15.02 | 51.02 | 0 | 13.54 | 15.37 | 22.95 |
| 18:06 | 2 | 19.7 | 79 | 2,147,483,647 | 0.12 | 0 | 1.96 | 14.59 | 53.58 | 0 | 14.96 | 17.27 | 26.96 |
| 18:04 | 2 | 19.7 | 79 | 2,147,483,647 | 0.19 | 0 | 1.95 | 17.09 | 49.86 | 0 | 13.54 | 15.86 | 23.55 |
| 17:59 | 2 | 19.8 | 79 | 2,147,483,647 | 0.12 | 0 | 1.94 | 14.04 | 53.96 | 0 | 13.54 | 16.36 | 25.32 |
| 17:52 | 2 | 20 | 79 | 2,147,483,647 | 0.2 | 0 | 1.94 | 13.02 | 52.13 | 0 | 14.25 | 16.85 | 25.93 |
| 17:51 | 2 | 20 | 79 | 2,147,483,647 | 0.23 | 0 | 1.94 | 6.01 | 53.31 | 0 | 13.54 | 15.92 | 24.8 |
| 17:50 | 2 | 20 | 79 | 2,147,483,647 | 0.19 | 0 | 1.98 | 12.65 | 53.67 | 0 | 14.25 | 17.33 | 25.93 |
| 17:49 | 2 | 20 | 79 | 2,147,483,647 | 0.29 | 0 | 2 | 9.53 | 53.73 | 0 | 15.68 | 16.85 | 25.36 |
| 17:48 | 2 | 20 | 79 | 2,147,483,647 | 0.15 | 0 | 1.99 | 6.02 | 52.77 | 0 | 14.96 | 19.7 | 29.96 |
| 17:47 | 2 | 20 | 79 | 2,147,483,647 | 0.19 | 0 | 2 | 14.76 | 59.42 | 0 | 16.39 | 19.7 | 30.54 |
| 17:46 | 2 | 20.1 | 79 | 2,147,483,647 | 0.2 | 0 | 1.98 | 12.01 | 51.43 | 0 | 14.25 | 15.91 | 23.06 |
| 17:45 | 2 | 20.1 | 79 | 2,147,483,647 | 0.17 | 0 | 1.98 | 4.88 | 52.97 | 0 | 15.68 | 18.28 | 28.26 |